User: anonymous   Login
Location: ?????????
(38.0736°N, 23.2119°E)
Time: 05:18:44
(UTC+00:00)
Language:

Cosmos 1833 - Orbit

View from above orbital plane
View from above orbital plane
View from above satellite
View from above satellite

Ground track
Ground track

The orbit data is extracted from the following two-line orbital elements,

1 17589U 87027A   24173.49693997 -.00000176  00000-0 -68316-4 0  9991
2 17589  70.9134 202.1826 0019534  65.2585 295.0566 14.12954967921856
Epoch (UTC): 21 June 2024 11:55:35
Eccentricity: 0.0019534
inclination: 70.9134°
perigee height: 835 km
apogee height: 863 km
right ascension of ascending node: 202.1826°
argument of perigee: 65.2585°
revolutions per day: 14.12954967
mean anomaly at epoch: 295.0566°
orbit number at epoch: 92185

The dashed part of the orbit path shows where the satellite is in the earth's shadow,  

DLR